[[{"header":{"parameterUnit":"m.s-1","parameterCategory":1,"la1":30.2991,"la2":30.254,"lo1":-89.0895,"lo2":-89.0444,"dy":0.0017,"dx":0.0017,"nx":28,"ny":28,"refTime":"2023-11-03T21:00:00:Z","depth":0,"parameterNumber":2,"parameterNumberName":"U-component_of_WINDS"},"data":[0,0,0,0,0,0,0,0,0,0,0,0,0,0,0,0,0,0,0,0,0,0,0,0,0,0,0,0,0,0,0,0,0,0,0,0,0,0,0,0,0,0,0,0,0,0,0,0,0,0,0,0,0,0,0,0,0,0,-1.0481,-1.0481,0,-1.0413,-1.0413,-1.0412,-1.0358,-1.0358,-1.0357,-1.0356,-1.0284,-1.0283,-1.0281,0,0,0,0,0,0,0,0,0,0,0,0,0,-1.0563,-1.0562,-1.0481,-1.0481,-1.048,-1.0413,-1.0412,-1.0412,-1.0358,-1.0357,-1.0357,-1.0356,-1.0285,-1.0283,-1.0281,0,0,0,0,0,0,0,0,0,0,0,0,0,-1.0514,-1.0561,-1.0482,-1.0445,-1.0441,-1.0414,-1.0412,-1.0411,-1.0358,-1.0357,-1.0357,-1.0356,-1.0285,-1.0283,-1.0281,-1.0283,0,0,-1.0274,-1.0273,0,0,0,0,0,0,0,0,-1.0517,-1.0511,-1.0451,-1.0448,-1.0443,-1.0393,-1.0415,-1.0368,-1.0358,-1.039,-1.0356,-1.0356,-1.0321,-1.0316,-1.0305,-1.028,-1.0277,-1.0274,-1.0273,-1.0272,-1.0271,0,0,0,0,0,0,0,-1.0521,-1.0514,-1.0454,-1.045,-1.0445,-1.0431,-1.0424,-1.0406,-1.036,-1.0387,-1.0383,-1.0376,-1.0319,-1.0307,-1.0303,-1.0276,-1.0274,-1.0272,-1.0271,-1.027,-1.0251,-1.0251,0,0,0,0,0,0,-1.053,-1.0517,-1.0456,-1.0452,-1.0479,-1.0431,-1.0422,-1.041,-1.0361,-1.0352,-1.0376,-1.0373,-1.0311,-1.0305,-1.03,-1.03,-1.0272,-1.027,-1.0269,-1.025,-1.0251,-1.0252,0,0,0,0,0,0,-1.0532,-1.0525,-1.0459,-1.0484,-1.0474,-1.043,-1.0417,-1.0409,-1.0398,-1.0353,-1.0344,-1.0373,-1.031,-1.0303,-1.0288,-1.0297,-1.0269,-1.0267,-1.0249,-1.025,-1.0251,-1.0301,0,0,0,0,0,0,-1.0534,-1.0526,-1.0527,-1.0484,-1.0473,-1.045,-1.0418,-1.0408,-1.0394,-1.039,-1.0347,-1.0339,-1.0309,-1.0292,-1.0286,-1.0294,-1.0265,-1.0248,-1.025,-1.0251,-1.0299,-1.0304,-1.0309,0,0,0,0,0,-1.0538,-1.0543,-1.0527,-1.052,-1.0474,-1.045,-1.0444,-1.041,-1.0395,-1.0396,-1.0367,-1.0341,-1.0297,-1.0291,-1.0284,-1.0291,-1.0247,-1.0249,-1.0251,-1.0296,-1.0303,-1.0308,0,0,0,0,0,0,-1.0587,-1.0537,-1.0519,-1.051,-1.0485,-1.0441,-1.0441,-1.0417,-1.0395,-1.0392,-1.0349,-1.034,-1.033,-1.0309,-1.0303,-1.0291,-1.0269,-1.0269,-1.0306,-1.0312,-1.0316,-1.0322,-1.0264,0,0,0,0,0,-1.0597,-1.0583,-1.0539,-1.0536,-1.0525,-1.0485,-1.0474,-1.045,-1.0421,-1.041,-1.038,-1.0353,-1.0333,-1.0321,-1.03,-1.0295,-1.0285,-1.0296,-1.0301,-1.0306,-1.0307,-1.0304,-1.0308,-1.0257,-1.0257,-1.0257,0,0,-1.0617,-1.0588,-1.0582,-1.0546,-1.0523,-1.0509,-1.0476,-1.0463,-1.0452,-1.0407,-1.0393,-1.037,-1.0337,-1.0327,-1.0322,-1.0309,-1.0319,-1.0308,-1.0312,-1.031,-1.0306,-1.0311,-1.0315,-1.0259,-1.0258,-1.0258,0,0,-1.0647,-1.0624,-1.0619,-1.0598,-1.0565,-1.0539,-1.0538,-1.0497,-1.0481,-1.0465,-1.0432,-1.0418,-1.0385,-1.0363,-1.0347,-1.0371,-1.0346,-1.0365,-1.0391,-1.0389,-1.0393,-1.0396,-1.0406,-1.0409,-1.0366,-1.0366,-1.0366,0,-1.0677,-1.0656,-1.062,-1.0609,-1.0594,-1.0554,-1.0549,-1.053,-1.0491,-1.0482,-1.0469,-1.0427,-1.0401,-1.0387,-1.0393,-1.0381,-1.0379,-1.037,-1.0395,-1.0398,-1.0401,-1.0409,-1.0413,-1.0369,-1.0368,-1.0368,-1.0368,0,-1.0694,-1.0679,-1.068,-1.0645,-1.063,-1.0622,-1.0585,-1.0574,-1.0551,-1.0527,-1.0512,-1.048,-1.0453,-1.0447,-1.0424,-1.043,-1.0423,-1.0403,-1.038,-1.0409,-1.0416,-1.0419,-1.0372,-1.0372,-1.0371,-1.037,0,0,-1.0753,-1.07,-1.0701,-1.0685,-1.0646,-1.0634,-1.0624,-1.0599,-1.0591,-1.0565,-1.0556,-1.053,-1.0511,-1.0494,-1.0468,-1.0465,-1.0488,-1.0445,-1.0444,-1.0456,-1.0493,-1.051,-1.0514,-1.0471,-1.0471,-1.0471,-1.0497,0,-1.0778,-1.076,-1.0728,-1.072,-1.0707,-1.0669,-1.066,-1.0635,-1.0612,-1.0597,-1.057,-1.0552,-1.0529,-1.0518,-1.0514,-1.0486,-1.0495,-1.0483,-1.0462,-1.0462,-1.0473,-1.0518,-1.0535,-1.056,-1.0499,-1.0499,-1.05,0,-1.0805,-1.0784,-1.0775,-1.0738,-1.0731,-1.0725,-1.0699,-1.0685,-1.0656,-1.0639,-1.062,-1.0593,-1.058,-1.0559,-1.0541,-1.0535,-1.0524,-1.0509,-1.0509,-1.0507,-1.0484,-1.0518,-1.0567,-1.0571,-1.0504,-1.0503,-1.0503,0,-1.0851,-1.082,-1.0811,-1.0799,-1.0755,-1.0751,-1.0733,-1.0703,-1.069,-1.0667,-1.0659,-1.0634,-1.0622,-1.0603,-1.057,-1.0557,-1.0557,-1.0532,-1.0543,-1.0544,-1.0545,-1.0546,-1.0595,-1.0536,-1.0536,-1.0536,-1.0536,0,-1.0883,-1.088,-1.0832,-1.0826,-1.0821,-1.0784,-1.0779,-1.0757,-1.0731,-1.0721,-1.0685,-1.0676,-1.0632,-1.0617,-1.0591,-1.0581,-1.0575,-1.0561,-1.0555,-1.0565,-1.0567,-1.0559,-1.0557,-1.0537,-1.0537,-1.0537,-1.0537,0,-1.0934,-1.0902,-1.089,-1.085,-1.084,-1.0838,-1.0803,-1.0797,-1.0771,-1.0759,-1.0753,-1.0713,-1.0695,-1.0659,-1.063,-1.0612,-1.0609,-1.0596,-1.0619,-1.0616,-1.0629,-1.0629,-1.0675,-1.068,-1.0617,-1.0618,-1.0619,0,-1.0958,-1.0954,-1.0915,-1.0906,-1.0889,-1.0875,-1.0862,-1.0825,-1.0813,-1.078,-1.0777,-1.0756,-1.0737,-1.0709,-1.0677,-1.0655,-1.0642,-1.066,-1.0638,-1.065,-1.0644,-1.0645,-1.0645,-1.0665,-1.0666,-1.0667,-1.0667,0,-1.1003,-1.0987,-1.0971,-1.0949,-1.0935,-1.0916,-1.0894,-1.0889,-1.0846,-1.0835,-1.0816,-1.0801,-1.0773,-1.0752,-1.0726,-1.0706,-1.068,-1.0674,-1.0676,-1.0687,-1.0702,-1.0696,-1.0634,-1.0673,-1.0673,-1.0672,-1.0672,-1.0672,-1.1042,-1.1038,-1.101,-1.0992,-1.0973,-1.0954,-1.0946,-1.0921,-1.0905,-1.0879,-1.0858,-1.0841,-1.0812,-1.0774,-1.0756,-1.0742,-1.073,-1.0732,-1.0732,-1.0734,-1.0739,-1.0703,-1.0737,-1.0737,-1.0736,-1.0736,-1.0736,0,-1.1086,-1.1067,-1.1052,-1.1024,-1.1011,-1.0988,-1.0963,-1.0954,-1.094,-1.0916,-1.0898,-1.0877,-1.0858,-1.0825,-1.0802,-1.0798,-1.0785,-1.0793,-1.0794,-1.079,-1.075,-1.0752,-1.0804,-1.0804,-1.0804,-1.0803,-1.0803,-1.0803,-1.1108,-1.1101,-1.1082,-1.1064,-1.1044,-1.1028,-1.1017,-1.0999,-1.098,-1.0959,-1.0942,-1.0921,-1.0894,-1.0869,-1.085,-1.0841,-1.0835,-1.0847,-1.0834,-1.0799,-1.0792,-1.0786,-1.0788,-1.0846,-1.0846,-1.0875,-1.0875,-1.0875]},{"header":{"parameterUnit":"m.s-1","parameterCategory":1,"la1":30.2991,"la2":30.254,"lo1":-89.0895,"lo2":-89.0444,"dy":0.0017,"dx":0.0017,"nx":28,"ny":28,"refTime":"2023-11-03T21:00:00:Z","depth":0,"parameterNumber":3,"parameterNumberName":"V-component_of_WINDS"},"data":[0,0,0,0,0,0,0,0,0,0,0,0,0,0,0,0,0,0,0,0,0,0,0,0,0,0,0,0,0,0,0,0,0,0,0,0,0,0,0,0,0,0,0,0,0,0,0,0,0,0,0,0,0,0,0,0,0,0,-1.2636,-1.2636,0,-1.2643,-1.2643,-1.2643,-1.2675,-1.2676,-1.2677,-1.2677,-1.2684,-1.2684,-1.2683,0,0,0,0,0,0,0,0,0,0,0,0,0,-1.265,-1.2649,-1.2636,-1.2636,-1.2636,-1.2643,-1.2643,-1.2643,-1.2675,-1.2676,-1.2677,-1.2678,-1.2684,-1.2684,-1.2683,0,0,0,0,0,0,0,0,0,0,0,0,0,-1.2649,-1.2649,-1.2636,-1.2652,-1.2654,-1.2643,-1.2643,-1.2643,-1.2675,-1.2676,-1.2677,-1.2678,-1.2685,-1.2684,-1.2683,-1.2656,0,0,-1.2681,-1.2681,0,0,0,0,0,0,0,0,-1.2649,-1.2648,-1.265,-1.2651,-1.2653,-1.2659,-1.2651,-1.2648,-1.2674,-1.2667,-1.2677,-1.2679,-1.2675,-1.2675,-1.2674,-1.2657,-1.2657,-1.2681,-1.268,-1.268,-1.268,0,0,0,0,0,0,0,-1.2649,-1.2648,-1.2639,-1.265,-1.2652,-1.266,-1.2661,-1.265,-1.2665,-1.2668,-1.267,-1.267,-1.2676,-1.2675,-1.2674,-1.2657,-1.2681,-1.268,-1.268,-1.2679,-1.2621,-1.262,0,0,0,0,0,0,-1.2647,-1.2648,-1.2638,-1.2639,-1.2654,-1.2659,-1.266,-1.2656,-1.2665,-1.2667,-1.2669,-1.2672,-1.2675,-1.2675,-1.2675,-1.2646,-1.268,-1.2679,-1.2679,-1.2622,-1.2621,-1.262,0,0,0,0,0,0,-1.2647,-1.2645,-1.2638,-1.2644,-1.2644,-1.2657,-1.2653,-1.2656,-1.2654,-1.2666,-1.2669,-1.2665,-1.2676,-1.2676,-1.2661,-1.2647,-1.2679,-1.2678,-1.2623,-1.2622,-1.262,-1.2587,0,0,0,0,0,0,-1.2647,-1.2645,-1.2635,-1.2644,-1.2643,-1.2624,-1.2652,-1.2655,-1.2653,-1.2656,-1.2663,-1.2665,-1.2677,-1.2662,-1.2661,-1.2647,-1.2678,-1.2625,-1.2623,-1.2621,-1.259,-1.2585,-1.2581,0,0,0,0,0,-1.2647,-1.2625,-1.2634,-1.2633,-1.2631,-1.2623,-1.2623,-1.2637,-1.2652,-1.2642,-1.265,-1.2665,-1.2648,-1.2661,-1.2659,-1.2644,-1.2626,-1.2623,-1.2621,-1.2592,-1.2586,-1.2581,0,0,0,0,0,0,-1.2613,-1.2626,-1.2637,-1.2616,-1.2618,-1.2628,-1.2616,-1.263,-1.2628,-1.2631,-1.2648,-1.265,-1.2633,-1.2637,-1.265,-1.262,-1.264,-1.2637,-1.2619,-1.2613,-1.2608,-1.2608,-1.2677,0,0,0,0,0,-1.2603,-1.2596,-1.2607,-1.2588,-1.2589,-1.2602,-1.2599,-1.261,-1.2613,-1.2614,-1.2621,-1.2624,-1.2619,-1.2616,-1.2612,-1.259,-1.2593,-1.258,-1.2575,-1.2571,-1.2569,-1.256,-1.2555,-1.2611,-1.2611,-1.2611,0,0,-1.2582,-1.2588,-1.2583,-1.2581,-1.2584,-1.2577,-1.2603,-1.2593,-1.2589,-1.2613,-1.2601,-1.2606,-1.261,-1.2592,-1.2584,-1.2595,-1.2554,-1.2568,-1.2565,-1.2565,-1.2557,-1.2552,-1.2547,-1.261,-1.261,-1.261,0,0,-1.2541,-1.2544,-1.253,-1.2533,-1.2538,-1.2547,-1.2544,-1.2552,-1.2557,-1.2545,-1.2564,-1.2558,-1.2549,-1.2552,-1.2553,-1.2515,-1.253,-1.2513,-1.2489,-1.2481,-1.2476,-1.2473,-1.2461,-1.2457,-1.251,-1.251,-1.251,0,-1.2515,-1.2505,-1.252,-1.2511,-1.2511,-1.2533,-1.252,-1.2521,-1.2524,-1.2524,-1.2535,-1.2527,-1.2531,-1.2516,-1.2507,-1.2505,-1.2503,-1.2513,-1.2476,-1.2472,-1.2469,-1.2458,-1.2454,-1.2509,-1.2509,-1.2509,-1.2509,0,-1.2474,-1.2466,-1.2454,-1.2458,-1.2456,-1.2444,-1.2459,-1.2455,-1.2467,-1.2475,-1.2464,-1.247,-1.2469,-1.2466,-1.2476,-1.2452,-1.2459,-1.2472,-1.2493,-1.2461,-1.2452,-1.2448,-1.2506,-1.2507,-1.2507,-1.2508,0,0,-1.2411,-1.2425,-1.242,-1.2424,-1.2431,-1.2426,-1.2416,-1.2416,-1.2414,-1.2415,-1.2409,-1.2402,-1.2415,-1.2415,-1.2426,-1.2419,-1.2392,-1.2434,-1.2434,-1.2428,-1.2369,-1.236,-1.2355,-1.2401,-1.24,-1.24,-1.2369,0,-1.2374,-1.2358,-1.2373,-1.2354,-1.2349,-1.2371,-1.2363,-1.2367,-1.2375,-1.2372,-1.2381,-1.2377,-1.2393,-1.2394,-1.2387,-1.2396,-1.238,-1.2398,-1.2396,-1.2396,-1.2397,-1.235,-1.234,-1.2311,-1.2366,-1.2365,-1.2364,0,-1.2329,-1.233,-1.2311,-1.2323,-1.2321,-1.2313,-1.2316,-1.2312,-1.2318,-1.2324,-1.2326,-1.234,-1.2332,-1.2351,-1.2341,-1.2353,-1.2353,-1.2357,-1.2357,-1.2358,-1.238,-1.2353,-1.2302,-1.2299,-1.2358,-1.2359,-1.2359,0,-1.2288,-1.2285,-1.2274,-1.2276,-1.2288,-1.2282,-1.2287,-1.2294,-1.2294,-1.2296,-1.2296,-1.2297,-1.2297,-1.2298,-1.2312,-1.2324,-1.2301,-1.2321,-1.2308,-1.2308,-1.2303,-1.2304,-1.2255,-1.23,-1.23,-1.23,-1.23,0,-1.2247,-1.2235,-1.2256,-1.225,-1.2238,-1.2255,-1.2243,-1.225,-1.2256,-1.2252,-1.227,-1.2266,-1.2284,-1.2282,-1.2293,-1.2285,-1.2284,-1.2291,-1.2294,-1.229,-1.229,-1.2292,-1.2295,-1.2299,-1.2299,-1.2299,-1.23,0,-1.22,-1.2213,-1.2204,-1.2216,-1.222,-1.221,-1.2222,-1.2217,-1.2226,-1.2221,-1.2221,-1.2236,-1.2235,-1.2249,-1.225,-1.2257,-1.2245,-1.2251,-1.2243,-1.2246,-1.2233,-1.2235,-1.2185,-1.218,-1.2226,-1.2226,-1.2225,0,-1.2173,-1.2165,-1.2178,-1.2177,-1.2181,-1.2179,-1.2179,-1.2196,-1.2196,-1.2203,-1.2198,-1.2198,-1.22,-1.2197,-1.2208,-1.221,-1.2217,-1.2199,-1.2217,-1.2215,-1.222,-1.2221,-1.2221,-1.2196,-1.2195,-1.2195,-1.2195,0,-1.2126,-1.2134,-1.2134,-1.2137,-1.2137,-1.214,-1.2144,-1.2142,-1.216,-1.2159,-1.2159,-1.216,-1.2162,-1.2163,-1.2167,-1.2173,-1.2187,-1.2189,-1.2186,-1.2183,-1.218,-1.2184,-1.2235,-1.219,-1.2191,-1.2191,-1.2191,-1.2191,-1.209,-1.2085,-1.2094,-1.2094,-1.2099,-1.2103,-1.21,-1.2109,-1.2109,-1.2113,-1.2123,-1.2121,-1.2129,-1.2136,-1.2141,-1.214,-1.2149,-1.2145,-1.2144,-1.2143,-1.2142,-1.2179,-1.2141,-1.2141,-1.2141,-1.2141,-1.2141,0,-1.2046,-1.2053,-1.2053,-1.2059,-1.2059,-1.2073,-1.2078,-1.2078,-1.2077,-1.2083,-1.2085,-1.2085,-1.2087,-1.2098,-1.2102,-1.2099,-1.2106,-1.21,-1.2101,-1.2102,-1.2133,-1.2136,-1.2094,-1.2094,-1.2094,-1.2094,-1.2094,-1.2094,-1.2023,-1.2016,-1.2024,-1.2021,-1.2028,-1.2027,-1.2029,-1.2034,-1.2039,-1.2039,-1.2041,-1.2049,-1.2058,-1.2062,-1.2064,-1.2068,-1.2069,-1.2061,-1.2067,-1.2095,-1.21,-1.2104,-1.2107,-1.206,-1.206,-1.2037,-1.2037,-1.2036]}]]